Regional Weather Roundup
Issued by NWS Newport/Morehead, NC

Current Version | Previous Version | Graphics & Text | Print | Product List | Glossary Off
Versions: 1 2 3 4 5 6 7 8 9 10 11 12 13 14 15 16 17 18 19 20 21 22 23 24 25 26 27 28 29 30 31 32 33 34 35 36 37 38 39 40 41 42 43 44 45 46 47 48 49 50

000
ASUS42 KMHX 201325
RWRMHX
WEATHER ROUNDUP FOR EASTERN NORTH CAROLINA
NATIONAL WEATHER SERVICE NEWPORT/MOREHEAD CITY NC
800 AM EST FRI JAN 20 2017

NOTE: "FAIR" INDICATES FEW OR NO CLOUDS BELOW 12,000 FEET
WITH NO SIGNIFICANT WEATHER AND/OR OBSTRUCTIONS TO VISIBILITY

NCZ015>017-031-032-045>047-102-103-201400-
NORTH COAST

CITY           SKY/WX    TMP DP  RH WIND       PRES   REMARKS
EDENTON        CLOUDY    47  43  85 CALM      29.98S
ELIZABETH CITY CLOUDY    46  44  93 SE3       29.99R
KITTY HAWK     NOT AVBL
MANTEO         CLOUDY    45  45 100 CALM      29.99S

$$

NCZ045>047-081-094-103-104-201400-
CENTRAL COAST

CITY           SKY/WX    TMP DP  RH WIND       PRES   REMARKS
FRISCO         CLOUDY    50  43  77 NE6       29.98S

$$

NCZ095-097-098-100-101-201400-
SOUTHERN COAST

CITY           SKY/WX    TMP DP  RH WIND       PRES   REMARKS
BEAUFORT       CLOUDY    52  50  93 NE3       29.95F
CEDAR ISLAND   NOT AVBL
JACKSONVILLE   CLOUDY    51  49  92 NE3       29.94R
PINEY ISLAND   CLOUDY   N/A N/A N/A NE7       29.95S
WILMINGTON     CLOUDY    55  53  93 E3        29.94R


$$

NCZ011>013-027>030-043-044-078>080-089-090>093-098-201400-
COASTAL PLAIN

CITY           SKY/WX    TMP DP  RH WIND       PRES   REMARKS
AHOSKIE        CLOUDY    42  40  93 CALM      29.98R
CLINTON        CLOUDY    51  48  90 CALM      29.93S
ELIZABETHTOWN  LGT RAIN  50  49  93 E3        29.92F
GOLDSBORO      CLOUDY    46  46 100 E6        29.93R
GREENVILLE     CLOUDY    45  45 100 CALM      29.98S
HAVELOCK       CLOUDY    50  47  89 CALM      29.97R
KENANSVILLE    CLOUDY    48  45  87 E3        29.94F
KINSTON        MOCLDY    46  45  93 E3        29.97R
NEW BERN       CLOUDY    48  44  86 E3        29.97S
RICHLANDS      CLOUDY    47  45  93 NE6       29.95R
ROCKY MOUNT    MOCLDY    44  44 100 CALM      29.94F
WASHINGTON     NOT AVBL
WHITEVILLE     CLOUDY    53  49  89 CALM      29.92S

$$

AMZ130-135-150-152-154-156-158-170-250-252-270-ANZ085-086-088-633-658-670-201400-
MARINE OBSERVATIONS

STATION/POSITION TIME  TEMP    WIND        PRES    WAVE   SWELL
                       AIR SEA DIR/SP/G            HT/PER HT/PER
                 (UTC) (F)     (DEG/KT/KT) (MB)    (FT/S) (FT/S)
CHESAPEAKE LIGHT NOT AVBL
64 E VA BEACH    1250   52 56  290/  4/  6 1015.5    6/11   5/11
DUCK             1300   46 45  110/  6/  7 1014.6
2 E DUCK         1300      45                N/A     4/11   2/11
OREGON INLET     1300   46 49   50/  2/  3 1015.3
13E OREGON INLT  NOT AVBL
HATTERAS CG      1300   51 54   60/  5/  7 1014.3
DIAMOND BUOY     1250   61 76  100/  6/ 10 1014.8    5/12   5/12
CAPE LOOKOUT     1300   63     100/  9/ 10 1013.6
BEAUFORT LAB     1300   53 50  340/  3/  4 1013.2
30 SE NEW RVR IN 1308   62 64   80/  6/  8 1013.6
30 SE NEW RVR IN 1313      64                N/A     3/11   2/11
27 SE WRIGHTSVLE 1308   70 71  140/ 12/ 16 1012.9
5 SE WRIGHTSVLE  1308   58      20/  6/  8 1013.7
225 S CAPE HAT   1250   68 71  150/  8/ 10 1015.1    6/12   5/12
41 SE CHARLESTON 1250   70 71  240/ 12/ 14 1012.9    2/ 9   2/ 9

$$




USA.gov is the U.S. government's official web portal to all federal, state and local government web resources and services.